Location: Alphen
(52.1351°N, 4.6549°E)
Time: 01:51:34
(UTC+00:00)

Cosmos 1346 Rocket - Pass Details

Date: 27 January 2021
Orbit: 532 x 546 km, 81.2° (Epoch: 26 February)

Event Time Altitude Azimuth Distance (km) Brightness Sun altitude
Exits shadow 05:53:59 18° 322° (NW) 1,400 4.4 -14.4°
Maximum altitude 05:56:27 35° 266° (W) 898 3.4 -14.1°
Drops below altitude 10° 06:00:05 10° 200° (SSW) 1,810 5.4 -13.5°
Sets 06:02:22 0° 192° (SSW) 2,699 6.4 -13.2°
